Showing default

FLOCK 4H 18, 66721

Orbit data source: Space-Track

FLOCK 4H 18, 66721 is a payload satellite owned by Planet (US) in SSO that was launched on Fri, 28 Nov 2025 UTC via an FALCON 9 launch vehicle from the Air Force Western Test Range (AFWTR). Payload-class satellites include a variety of spacecraft equipped with specific instruments for various scientific and technological missions. These include communications satellites like Starlink; space stations such as the ISS; scientific satellites like the Hubble; Earth observation satellites from companies like Planet Labs, Umbra, and HawkEye 360; GPS; miniature CubeSats for education and research; and military/defense satellites.

Loading next visibility...
Identifier
66721, 2025-276BH
Orbit
SSO
Country
Flag of USUS
Related business
Manufacturer
Planet
Mission
Operational Commercial Imaging
Bus & Motor
CUBESAT 3U, Unknown motor
Mass
5.7 kg wet, 5.7 kg dry
Launch date (UTC)
2025-11-28 (2 months ago)
Launch vehicle
FALCON 9
Launch site
Air Force Western Test Range (AFWTR)
Object type
Payload
Rocket body
Debris
Shape & HBR
Box + 2 Pan, 1.0 m
Radar Cross Section
0.072 m²

Expand to show TLE details & history
Last TLE update: 17 hours ago

TLE from 17 hours ago
0 FLOCK 4H 18
1 66721U 25276BH  26034.43043660  .00010795  00000-0  53467-3 0  9995
2 66721  97.4315 110.2198 0005132 125.6753 234.4960 15.17933739 10114
Epoch: 2026-02-03T10:19Z
TLE epoch observation values (Epoch: 2026-02-03T10:19:49.722Z)
Latitude
0.00006°
Longitude
-178.34886°
Altitude
517.228 km
Speed
7.604 km/s
True Right ascension
07h 20m 52s
True Declination
0° 00' 00"
Sunlit
Object was in full shadow at epoch
Visualization orbit readout
Latitude
Unknown
Longitude
Unknown
Altitude
Unknown
Speed
Unknown
Apparent Right ascension
Unknown
Apparent Declination
Unknown
Sunlit
N/A
Visualization observer readout
Local Sidereal Time
05:37:29
Azimuth
Unknown
Elevation
Unknown
Doppler factor
Unknown
Orbital elements
Apogee altitude
512.591 km
Perigee altitude
505.521 km
Semi-major axis
6,887.193 km
Eccentricity
0.00051
Inclination
97.4315°
RAAN
110.2198°
Arg. of periapsis
125.6753°
True anomaly
234.44814°
Mean anomaly
234.496°
Eccentric anomaly
234.47207°
Mean motion
3.79734 °/min
Orbital period
94.8 mins
BSTAR
0.00053467
Loading maneuver chart data...
Computing Atmospheric mass density...
Loading historical data...
Loading historical data...
Loading historical data...
Loading historical data...
Loading historical data...
Loading historical data...
Loading historical data...

Documentation

Showing up to 5 results
|